Dewpoint
68 69 69 70 69 70 71 70 70 70 70 69 68 68 68 68 68 68 68 67 67 65 63 64 65 65 65 66 67 67 66 65 66 68 69 68 68 67 67 67 67 68 69
68 69 69 69 69 70 70 70 70 69 70 69 68 67 68 68 68 67 68 67 66 64 64 64 65 66 64 65 66 66 66 66 65 66 68 68 68 67 67 67 67 68 68
68 69 69 70 70 70 70 69 70 69 70 69 68 68 68 68 67 67 67 67 65 64 64 66 67 66 65 66 66 65 64 64 64 64 65 66 67 67 66 67 67 68 67
67 68 69 70 69 69 69 69 69 69 68 68 68 69 69 69 68 68 67 67 65 65 65 66 66 66 65 65 64 62 62 61 60 61 62 64 66 67 66 65 66 66 65
65 68 70 69 69 69 68 68 68 68 68 68 68 67 67 67 67 67 67 67 66 66 66 66 66 66 65 64 63 62 62 61 61 59 62 63 65 66 66 66 65 65 66
67 67 68 67 68 69 68 68 68 68 68 67 68 69 68 68 67 67 68 67 67 66 67 66 66 66 66 65 64 62 62 62 60 57 64 64 64 64 67 66 65 65 64
66 67 68 68 68 68 68 68 68 67 67 67 67 66 66 67 67 67 67 67 67 66 67 66 65 65 66 66 64 62 60 59 59 56 61 64 65 65 64 66 66 65 64
63 65 66 66 66 67 68 67 67 66 66 66 67 67 66 67 67 67 67 67 67 66 67 67 65 65 65 66 65 64 60 59 58 57 59 61 64 65 64 64 66 65 64
58 59 61 61 61 63 65 66 67 66 66 65 66 66 66 66 66 66 66 67 67 66 67 67 67 66 65 65 66 65 62 60 59 57 60 62 62 62 64 64 64 65 64
52 56 56 57 56 57 62 65 65 67 67 66 66 65 65 65 65 65 64 65 65 66 66 66 67 67 66 66 65 65 63 60 58 56 59 62 62 61 64 65 65 65 65
47 49 52 53 52 54 58 60 64 66 64 62 61 64 64 64 65 64 62 64 63 64 65 65 66 66 66 66 66 66 64 60 57 56 57 63 62 62 63 64 65 65 65
45 46 48 49 51 52 55 56 60 65 64 60 61 62 64 61 64 64 60 62 65 64 64 64 65 65 66 65 64 65 64 61 58 56 58 61 61 60 62 64 65 65 65
44 46 46 46 46 46 45 47 49 53 53 50 48 53 61 62 63 64 63 64 63 62 61 64 64 64 64 64 63 63 64 62 60 58 55 62 62 61 61 62 64 65 65
44 45 46 44 43 41 41 40 40 41 43 42 43 46 48 49 49 50 53 54 56 54 53 53 54 60 63 63 63 64 63 62 62 58 57 60 62 61 61 62 62 64 65
44 45 44 42 43 43 42 41 41 41 42 43 43 44 46 46 46 48 50 51 53 55 55 54 53 52 56 61 62 63 63 63 63 61 58 57 58 60 61 62 62 63 63
45 42 43 43 43 43 42 42 42 42 42 43 44 44 45 46 46 46 47 48 50 55 56 56 55 53 52 55 58 58 60 62 62 62 60 58 57 56 58 60 61 63 63
43 42 42 43 43 43 43 43 44 44 43 43 44 45 45 46 46 46 47 46 48 49 50 54 55 55 55 54 55 57 59 58 60 61 61 60 58 57 56 57 58 60 63
42 41 42 43 43 42 43 43 44 44 44 45 46 46 46 47 47 47 47 47 48 47 48 53 53 53 54 54 54 53 54 57 59 58 59 59 59 59 57 56 56 56 58
40 41 41 42 42 42 42 44 44 45 45 46 46 46 47 47 48 48 48 48 48 47 47 52 52 52 51 51 52 53 52 52 54 56 55 56 58 58 57 56 56 56 58
39 41 42 42 42 43 43 44 44 45 46 46 46 47 46 47 48 48 48 48 48 47 47 49 52 52 50 49 49 49 50 50 50 52 53 53 55 55 56 56 54 54 57
40 41 41 41 42 42 42 41 42 43 44 46 46 46 45 45 46 46 47 48 48 48 47 47 48 49 48 48 47 49 49 49 49 50 52 53 52 53 55 55 54 53 55
40 41 41 42 43 43 44 44 44 44 45 45 45 45 44 44 45 45 45 45 46 47 47 47 47 47 48 48 45 46 45 45 48 50 52 53 52 53 54 54 54 54 55
39 41 41 42 43 44 45 44 44 44 44 42 42 43 44 44 45 45 45 45 44 45 45 46 46 46 45 45 45 45 44 43 47 48 50 51 52 53 53 53 53 54 56
41 42 42 43 44 44 44 43 42 41 40 41 43 44 44 44 44 45 45 44 44 45 45 45 45 45 45 45 46 45 45 46 45 45 47 50 52 53 53 52 52 53 54
42 42 43 44 44 43 42 42 41 41 41 43 44 43 43 44 44 43 44 44 44 45 45 44 45 45 45 44 45 47 48 47 48 47 45 45 47 49 51 51 52 52 53
42 42 43 43 43 42 41 41 41 40 41 42 43 42 42 43 43 43 43 43 43 43 44 43 43 44 44 45 45 45 46 47 46 46 46 45 45 46 48 50 52 52 53
Wind_Speed
9 13 13 11 11 11 11 15 14 14 13 12 11 11 13 13 13 12 12 11 11 11 11 11 11 12 12 12 12 13 12 12 12 12 12 13 12 12 11 11 11 17 17
17 14 13 11 12 13 13 14 13 13 13 12 11 11 12 12 12 11 10 9 10 10 11 11 11 12 12 11 11 10 9 9 9 9 10 10 11 11 14 12 13 16 16
16 15 13 12 12 12 13 13 12 12 11 12 12 12 12 11 10 9 8 7 9 10 10 11 12 12 11 11 10 8 7 7 6 5 3 5 7 12 13 12 13 16 14
17 15 14 13 14 12 12 13 13 12 11 11 11 11 10 9 9 9 7 8 8 9 10 10 10 10 10 9 8 7 6 6 6 6 3 6 7 10 11 12 12 12 13
12 13 16 12 12 13 12 11 11 11 11 11 10 9 8 7 7 6 4 6 6 9 10 9 9 9 8 8 7 5 6 8 10 12 9 7 8 9 10 11 12 12 11
16 13 15 13 11 11 11 10 9 10 10 10 9 8 9 6 5 6 6 6 8 8 8 7 6 6 6 6 5 4 5 7 10 10 12 12 7 6 11 12 12 12 11
14 13 17 17 15 13 11 9 9 8 8 8 7 7 6 7 6 6 6 7 7 7 7 6 5 5 4 3 3 3 5 6 8 9 11 10 9 5 7 12 12 11 11
13 14 14 16 15 13 12 10 8 8 8 8 7 5 5 5 5 4 4 4 5 6 6 6 6 5 4 3 2 1 5 7 7 7 2 9 10 8 4 8 11 11 10
12 13 12 13 13 12 10 9 8 7 9 9 8 6 5 4 3 2 2 2 3 4 5 7 6 6 5 4 3 2 3 7 5 6 5 7 8 7 7 5 7 8 9
10 10 11 11 11 10 10 10 6 7 10 9 8 6 5 5 7 9 5 1 2 3 4 5 6 7 7 6 5 5 5 7 6 5 5 8 9 7 5 4 5 9 9
9 9 10 9 8 8 8 8 9 7 9 9 7 6 5 8 6 7 9 16 2 1 1 3 4 6 7 7 7 7 6 7 8 5 6 10 8 8 5 3 4 7 8
8 7 9 7 8 5 7 5 5 7 6 5 2 2 5 6 5 8 6 9 11 2 2 3 4 5 6 6 7 8 7 9 9 7 8 13 10 7 5 4 5 6 7
9 8 6 6 7 6 6 5 8 10 10 7 11 8 3 4 7 6 6 6 6 1 2 2 2 2 4 5 7 9 10 10 10 7 5 11 11 9 7 4 6 9 10
10 9 7 7 9 9 9 11 11 13 11 12 13 12 12 11 11 9 6 3 4 4 4 4 4 4 3 2 4 6 9 9 8 7 3 7 6 7 8 7 6 7 11
9 7 8 9 11 12 15 14 14 12 12 11 13 14 13 12 11 9 8 9 7 7 8 7 6 6 5 5 3 4 5 6 7 6 3 5 5 5 6 7 8 8 10
11 10 9 11 10 13 13 13 12 11 10 11 10 11 12 10 10 9 9 9 10 8 7 7 7 6 5 4 5 5 6 7 5 4 2 3 3 4 6 8 11 12 13
14 13 12 10 10 12 11 10 10 10 10 10 10 12 12 10 9 7 6 6 6 7 8 8 7 7 9 9 6 6 7 8 9 7 8 7 4 5 8 10 12 14 15
17 16 12 11 9 9 10 9 9 10 10 11 12 11 12 10 10 9 8 6 6 6 6 4 5 7 9 9 11 11 9 8 8 9 9 9 9 8 10 11 13 15 18
18 18 15 12 10 8 8 9 10 11 12 12 12 11 11 12 11 10 10 10 9 9 8 5 4 4 6 10 10 11 10 10 8 7 8 10 11 11 12 11 13 14 16
17 16 15 13 10 9 8 9 9 10 10 11 11 11 11 11 10 10 10 10 10 8 8 5 2 2 3 5 10 13 14 15 14 13 14 12 9 10 10 11 13 11 12
16 14 13 12 9 7 6 7 6 5 5 7 8 8 10 9 9 9 9 10 11 10 8 7 4 3 4 2 7 8 9 15 17 16 15 12 12 12 8 10 13 11 11
17 15 12 12 10 9 7 5 4 4 5 7 6 8 8 7 7 7 8 8 10 10 10 9 9 6 3 8 6 9 7 7 7 8 9 11 12 9 12 11 8 6 7
16 16 13 11 10 9 7 7 6 5 5 5 5 5 6 7 7 8 8 9 9 9 9 9 9 9 6 9 9 4 5 3 10 5 7 8 9 9 10 10 9 7 6
16 15 15 12 11 9 9 9 9 7 4 2 3 4 6 8 6 7 8 10 10 9 10 9 9 9 9 9 8 9 10 10 6 8 4 5 7 10 12 11 10 11 9
19 17 14 13 11 10 10 9 8 7 4 4 5 10 11 12 11 6 8 9 9 9 9 10 12 13 10 9 8 9 12 11 10 10 16 9 5 8 12 13 13 13 12
20 18 15 14 12 10 10 9 8 7 5 7 8 9 9 9 11 12 9 8 6 7 8 7 6 9 10 11 11 10 9 8 8 10 8 11 12 14 10 9 11 13 11
Wind_Direction
133 132 131 125 129 114 120 126 123 122 122 120 120 122 123 112 104 97 96 100 98 89 90 92 90 85 83 77 77 76 78 79 78 77 78 80 81 76 77 89 103 95 96
141 134 129 122 130 112 106 107 118 125 124 125 125 127 125 118 110 106 104 108 101 96 94 93 101 94 85 83 79 76 76 78 84 87 88 91 86 75 88 89 95 96 94
136 136 126 119 114 115 115 111 109 113 119 123 126 126 124 121 118 115 115 112 107 104 100 93 91 92 88 82 78 71 65 70 69 69 94 83 104 101 101 95 93 89 96
142 137 126 123 117 113 117 115 113 111 111 111 113 116 120 126 118 112 118 116 111 111 104 98 97 97 93 86 73 57 40 42 32 354 266 182 132 115 115 110 105 107 106
134 128 122 119 115 113 106 109 108 109 108 109 108 111 114 120 117 111 124 127 120 112 115 115 118 113 102 91 77 44 12 13 8 19 72 115 130 140 136 127 122 119 113
75 101 109 112 108 101 104 102 106 112 108 110 111 102 110 113 116 102 99 134 132 132 129 127 123 125 119 104 81 42 4 0 359 20 86 87 87 158 153 142 136 133 129
85 86 97 99 94 91 92 99 113 116 120 120 116 116 111 115 112 106 109 131 139 148 147 145 139 137 132 122 94 37 353 346 7 30 91 82 82 79 172 160 151 145 141
101 91 94 95 95 92 89 92 99 114 124 126 123 121 122 123 113 114 115 120 145 160 166 169 165 168 167 169 153 14 335 342 0 21 120 102 95 83 119 169 156 158 158
81 89 94 98 93 96 101 101 99 124 130 119 114 112 117 127 132 125 119 142 168 170 181 186 188 193 197 203 204 214 290 315 341 341 167 120 110 100 104 180 178 175 172
85 95 89 91 101 94 91 83 93 116 121 108 85 81 76 91 78 48 14 121 201 189 190 204 206 215 213 218 225 225 259 290 296 309 200 149 134 123 116 115 191 194 184
106 113 114 112 107 107 96 87 82 126 90 74 68 76 90 64 71 92 45 335 259 218 230 232 222 228 234 237 236 231 254 273 287 303 208 164 152 136 139 170 181 188 196
108 94 117 130 124 127 131 111 86 108 117 71 265 263 123 125 134 135 120 244 271 244 260 266 263 250 244 240 244 238 242 268 279 290 225 174 174 165 154 183 208 225 208
119 102 80 82 112 115 71 82 91 103 109 105 64 54 82 89 106 172 195 221 249 298 2 232 318 266 256 248 252 236 235 250 273 282 230 201 187 185 191 207 224 222 217
108 114 96 87 83 70 82 81 81 81 79 62 51 54 58 60 64 61 67 45 46 9 36 25 15 338 295 288 269 237 236 247 260 266 261 218 225 206 206 217 243 227 224
121 115 104 88 89 86 78 74 68 72 78 75 61 52 52 49 42 39 31 37 34 36 37 24 24 27 7 341 356 347 300 281 274 273 256 206 216 241 238 238 242 235 229
133 113 100 92 89 81 77 72 63 65 73 70 65 63 59 55 43 32 23 21 21 19 21 7 353 337 331 321 305 314 303 303 297 302 290 231 249 259 265 261 254 254 244
141 125 102 91 87 85 83 74 62 60 68 64 68 61 55 53 48 38 28 14 17 8 12 4 360 22 9 344 309 302 289 289 287 282 276 269 261 255 271 273 267 257 255
142 134 116 102 85 83 85 84 71 59 63 65 68 57 45 48 39 33 24 16 1 5 3 5 9 4 8 357 350 324 304 289 279 283 279 278 269 257 262 261 265 260 256
149 140 129 122 114 100 95 93 75 66 58 62 57 48 44 41 37 27 14 7 10 4 359 324 359 35 339 325 331 320 327 320 299 282 270 278 274 259 247 256 262 263 262
148 139 135 130 125 111 100 92 72 71 63 59 53 48 46 37 33 24 18 14 15 12 17 2 323 277 252 306 312 308 302 294 287 275 267 265 271 282 257 247 251 261 271
147 140 133 121 114 109 103 111 81 78 62 63 47 52 43 30 30 32 22 17 15 13 356 7 2 304 319 277 316 319 306 282 270 265 258 260 273 271 307 292 251 247 265
152 145 134 123 111 104 106 109 120 125 90 81 52 50 31 22 27 28 25 17 16 15 7 359 10 346 303 308 313 322 324 326 348 294 261 252 271 287 278 289 275 239 268
151 145 132 121 112 103 97 98 88 82 82 47 36 32 11 28 37 33 25 23 13 11 3 357 352 345 320 322 329 278 313 298 341 330 329 258 264 285 285 274 285 292 300
150 139 131 126 114 99 90 85 87 89 90 34 34 16 36 27 44 48 42 24 13 5 1 354 344 340 344 331 325 298 273 272 281 306 326 323 300 280 273 272 268 265 265
146 142 137 128 119 108 99 98 94 87 70 37 29 42 22 19 24 24 51 27 16 9 1 359 354 350 344 317 313 321 316 284 275 267 291 284 310 293 286 275 271 268 265
142 141 141 136 129 121 109 101 96 90 78 69 48 36 20 9 4 359 10 2 344 324 315 325 337 340 335 325 319 302 290 295 291 280 284 293 293 295 288 287 267 256 252